STARLINK-3319 (50847 NORAD) Tracking and Keplerian Element Data
This shows tracking and keplerian element data for the satellite.
Feedback or suggestion? Click here.
Element | Value |
Catalog | 50847 |
Name | STARLINK-3319 |
Epoch Orbit | 2175 |
Epoch Day | 140.58334491 |
Epoch Year | 2022 |
RAAN | 295.0524 |
Inclination | 53.2146 |
Eccentricity | 0.0001832 |
Argument of Perigee | 86.724 |
Mean Anonmoly | 4.8664 |
Mean Motion | 15.08843279 |
Decay Rate | -0.00028766 |
L1 | 1 50847U 22001AW 22140.58334491 -.00028766 00000+0 -17963-2 0 9993 |
L2 | 2 50847 53.2146 295.0524 0001832 86.7240 4.8664 15.08843279 21755 |
Live tracking and technical data element details for STARLINK-3319 (NORAD 50847). STARLINK-3319 can be tracked NOW for your location showing map with azimuth and elevation plus other details from your city location.
Track the satellite on the map from your city or location and see movement details for azimuth, elevation, latitude, longitude, range, height, and movement on the map or in text.
IsCatalogInMostPopularTable: catalog: 50847, numindb: 21
Update: records affected: 1
GetName: 50847 STARLINK-3319
Hit Count: updated at: Mon, 23 May 2022 21:41:43 GMT